FW1090 Enumclaw WA US current weather conditions

sailwx.info

Wind from 228

Air temperature 9.4° C
Dewpoint 6.7° C

Last reported at 2020-Aug-13 08:01 UTC.
Time now 2020-Aug-13 08:38 UTC

Location: N 47°14' W 122°02'.
View on Google Maps.

See reports from other nearby stations

  
Tides and Currents Weather Stations Pressure Air Temp Water Temp Dewpoint Dewpoint Depression Visibility Wind Speed Wind Dir Waves Ship Positions
date/time (UTC)wind fromknots sea level pressurealtimeterstation pressurevisibilityair tempwater tempwave heightnotes
2020-Aug-13 08:01 228 9.4
2020-Aug-13 07:46 127 8.9
2020-Aug-13 07:30 219 9.4
2020-Aug-13 07:15 220 9.4
2020-Aug-13 07:00 220 9.4
2020-Aug-13 06:45 159 9.4
2020-Aug-13 06:31 106 10.0
2020-Aug-13 06:15 244 10.0
2020-Aug-13 06:00 244 1 gusting 5 9.4
2020-Aug-13 05:46 066 9.4
2020-Aug-13 05:31 066 9.4
2020-Aug-13 05:15 066 9.4
2020-Aug-13 05:00 066 10.0
2020-Aug-13 04:45 106 10.6
2020-Aug-13 04:30 122 10.6
2020-Aug-13 04:15 121 11.7
2020-Aug-13 04:00 065 12.8
2020-Aug-13 03:45 280 13.9
2020-Aug-13 03:30 280 15.6
2020-Aug-13 03:15 280 16.7
2020-Aug-13 03:00 280 17.8
2020-Aug-13 02:45 278 18.9
2020-Aug-13 02:30 262 19.4
2020-Aug-13 02:15 318 20.0
2020-Aug-13 02:00 254 20.0
2020-Aug-13 01:45 338 0 gusting 3 20.0
2020-Aug-13 01:30 243 1 gusting 4 20.0
2020-Aug-13 01:15 245 2 gusting 5 20.0
2020-Aug-13 01:00 292 1 gusting 6 20.6
2020-Aug-13 00:45 288 1 gusting 5 20.0
2020-Aug-13 00:30 280 20.0
2020-Aug-13 00:15 256 3 gusting 6 20.0
2020-Aug-13 00:00 275 19.4
2020-Aug-12 23:45 240 0 gusting 6 20.0
2020-Aug-12 23:30 286 2 gusting 9 20.0
2020-Aug-12 23:17 247 2 gusting 7 20.0
2020-Aug-12 23:01 257 5 gusting 8 18.9
2020-Aug-12 22:47 245 4 gusting 7 18.9
2020-Aug-12 22:32 260 2 gusting 7 17.8
2020-Aug-12 22:16 340 1 gusting 6 18.9
2020-Aug-12 22:02 239 3 gusting 8 18.3
2020-Aug-12 21:46 271 0 gusting 6 18.3
2020-Aug-12 21:31 270 2 gusting 8 18.3
2020-Aug-12 21:16 212 0 gusting 5 17.8
2020-Aug-12 21:01 243 1 gusting 7 18.3
2020-Aug-12 20:45 274 6 gusting 9 17.8
2020-Aug-12 20:31 246 3 gusting 7 17.8
2020-Aug-12 20:16 247 3 gusting 7 16.7
2020-Aug-12 20:01 224 1 gusting 6 17.2
2020-Aug-12 19:46 290 3 gusting 8 16.1
2020-Aug-12 19:31 250 3 gusting 9 16.1
2020-Aug-12 19:16 249 3 gusting 7 15.6
2020-Aug-12 19:01 248 2 gusting 7 15.0
2020-Aug-12 18:45 289 3 gusting 6 15.0
2020-Aug-12 18:31 327 4 gusting 6 15.0
2020-Aug-12 18:16 011 1 gusting 5 15.0
2020-Aug-12 18:00 281 3 gusting 8 15.0
2020-Aug-12 17:46 291 1 gusting 5 15.0
2020-Aug-12 17:30 233 0 gusting 3 15.0
2020-Aug-12 17:15 239 14.4
2020-Aug-12 17:00 253 14.4
2020-Aug-12 16:45 243 13.9
2020-Aug-12 16:30 341 13.3
2020-Aug-12 16:15 271 12.8
2020-Aug-12 16:00 276 12.8
2020-Aug-12 15:47 245 12.8
2020-Aug-12 15:32 195 12.8
2020-Aug-12 15:16 115 12.2
2020-Aug-12 15:01 115 11.7
2020-Aug-12 14:46 115 11.1
2020-Aug-12 14:32 120 11.1
2020-Aug-12 14:16 068 10.6
2020-Aug-12 14:02 060 10.6
2020-Aug-12 13:46 118 10.0
2020-Aug-12 13:30 115 10.0
2020-Aug-12 13:16 118 10.0
2020-Aug-12 13:01 107 9.4
2020-Aug-12 12:46 101 9.4
2020-Aug-12 12:31 121 9.4
2020-Aug-12 12:15 067 9.4
2020-Aug-12 12:01 084 9.4
2020-Aug-12 11:46 118 9.4
2020-Aug-12 11:31 109 8.9
2020-Aug-12 11:16 118 8.9
2020-Aug-12 11:01 120 8.9
2020-Aug-12 10:46 133 8.9
2020-Aug-12 10:31 134 8.9
2020-Aug-12 10:01 255 10.0
2020-Aug-12 09:46 203 10.0
2020-Aug-12 09:30 122 10.0
2020-Aug-12 09:16 110 10.0
2020-Aug-12 09:00 075 10.6
2020-Aug-12 08:30 234 9.4
2020-Aug-12 08:15 119 10.0
2020-Aug-12 08:00 115 10.0
2020-Aug-12 07:45 115 10.0
2020-Aug-12 07:30 135 11.7
2020-Aug-12 07:16 275 11.7
2020-Aug-12 07:00 265 0 gusting 5 12.2
2020-Aug-12 06:45 249 2 gusting 4 12.2
2020-Aug-12 06:30 260 1 gusting 3 12.2
2020-Aug-12 06:15 249 1 gusting 4 12.8
2020-Aug-12 06:00 263 13.3
2020-Aug-12 05:45 236 2 gusting 4 13.9
2020-Aug-12 05:30 248 1 gusting 4 13.9
2020-Aug-12 05:15 217 5 gusting 8 15.0
2020-Aug-12 05:00 230 5 gusting 8 15.0
2020-Aug-12 04:46 254 2 gusting 6 15.6
2020-Aug-12 04:35 253 3 gusting 6 15.6
2020-Aug-12 04:17 249 4 gusting 7 16.1
2020-Aug-12 04:15 238 4 gusting 7 16.1
2020-Aug-12 04:02 221 1 gusting 6 16.1
2020-Aug-12 03:48 228 2 gusting 6 16.7
2020-Aug-12 03:31 249 1 gusting 5 16.7
2020-Aug-12 03:16 239 17.2
2020-Aug-12 03:04 224 17.8
2020-Aug-12 02:46 240 18.3
2020-Aug-12 02:33 252 3 gusting 6 18.9
2020-Aug-12 02:17 244 1 gusting 7 19.4
2020-Aug-12 02:02 263 2 gusting 6 20.0
2020-Aug-12 01:47 269 1 gusting 4 20.6
2020-Aug-12 01:31 280 3 gusting 7 20.6
2020-Aug-12 01:16 245 0 gusting 7 21.1
2020-Aug-12 01:01 285 3 gusting 10 21.7
2020-Aug-12 00:46 252 6 gusting 10 21.7
2020-Aug-12 00:31 255 6 gusting 12 22.2
2020-Aug-12 00:17 233 7 gusting 13 22.8
2020-Aug-12 00:01 267 7 gusting 12 22.8
2020-Aug-11 23:46 255 3 gusting 10 23.3
2020-Aug-11 23:31 269 6 gusting 13 23.3
2020-Aug-11 23:16 254 6 gusting 10 23.3
2020-Aug-11 23:01 357 5 gusting 15 23.3
2020-Aug-11 22:45 259 6 gusting 11 23.3
2020-Aug-11 22:31 209 6 gusting 13 23.3
2020-Aug-11 22:16 252 6 gusting 12 22.8
2020-Aug-11 22:01 185 6 gusting 13 22.8
2020-Aug-11 21:46 271 6 gusting 9 23.3
2020-Aug-11 21:30 258 5 gusting 12 22.8
2020-Aug-11 21:15 254 5 gusting 9 22.8
2020-Aug-11 21:00 276 0 gusting 6 22.8
2020-Aug-11 20:46 249 6 gusting 12 21.7
2020-Aug-11 20:30 281 3 gusting 9 22.2
2020-Aug-11 20:15 302 3 gusting 7 21.7
2020-Aug-11 20:00 314 4 gusting 8 21.1
2020-Aug-11 19:45 278 4 gusting 7 21.1
2020-Aug-11 19:30 235 5 gusting 8 20.6
2020-Aug-11 19:15 166 2 gusting 8 20.6
2020-Aug-11 19:00 233 0 gusting 6 20.0
2020-Aug-11 18:45 200 19.4
2020-Aug-11 18:30 243 18.9
2020-Aug-11 18:15 256 0 gusting 7 18.3
2020-Aug-11 18:00 277 2 gusting 6 18.9
2020-Aug-11 17:45 023 0 gusting 5 18.3
2020-Aug-11 17:31 235 0 gusting 5 18.3
2020-Aug-11 17:17 255 18.3
2020-Aug-11 17:01 041 17.2
2020-Aug-11 16:46 309 0 gusting 3 16.7
2020-Aug-11 16:31 251 16.1
2020-Aug-11 16:15 233 15.0
2020-Aug-11 16:00 309 14.4
2020-Aug-11 15:45 293 13.9
2020-Aug-11 15:31 224 13.3
2020-Aug-11 15:16 249 13.3
2020-Aug-11 15:01 229 12.8
2020-Aug-11 14:46 233 12.2
2020-Aug-11 14:31 219 12.2
2020-Aug-11 14:16 204 11.7
2020-Aug-11 14:01 165 11.1
2020-Aug-11 13:46 149 10.6
2020-Aug-11 13:31 148 9.4
2020-Aug-11 13:17 148 9.4
2020-Aug-11 13:01 148 9.4
2020-Aug-11 12:45 148 9.4
2020-Aug-11 12:30 148 10.0
2020-Aug-11 12:16 148 10.0
2020-Aug-11 12:00 148 10.6
2020-Aug-11 11:45 148 10.6
2020-Aug-11 11:31 148 11.1
2020-Aug-11 11:15 148 11.1
2020-Aug-11 11:00 148 11.7
2020-Aug-11 10:45 159 11.7
2020-Aug-11 10:30 160 12.2
2020-Aug-11 10:15 155 12.2
2020-Aug-11 10:00 155 12.8
2020-Aug-11 09:45 155 13.9
2020-Aug-11 09:30 155 14.4
2020-Aug-11 09:15 165 14.4
2020-Aug-11 09:00 210 14.4
2020-Aug-11 08:45 212 14.4
2020-Aug-11 08:31 214 14.4
2020-Aug-11 08:16 222 13.9
2020-Aug-11 08:02 148 13.3